^^
Your Local Weather - Clay, NY Station Historical Data
Daily Summary for January 26, 2018 Units:  Metric    English   Both
« Previous Day
Next Day »
Daily Weekly Monthly Yearly Custom
  High: Low: Average:
Temperature: 3.8 °C -11.6 °C -4.9 °C
Dew Point: -5.4 °C -13.9 °C -9.9 °C
Humidity: 84% 49% 70%
Wind Speed: 9.7km/h 0km/h 3.2km/h
Wind Gust: 17.7km/h - -
Wind- - East
Pressure: 1037.1 hPa 1027.7 hPa -
Precipitation: 0.76 mm    
Historical Graphs
 
 
Tabular Data for January 26, 2018
Time Temperature Dew Point Pressure Wind Wind Speed Wind Gust Humidity Rainfall Rate (Hourly) solar
00:00 -9.6 °C -13.6 °C 1035.1 hPa Calm     73% 0 mm 0 W/m2
00:05 -9.7 °C -13.6 °C 1035.1 hPa Calm     73% 0 mm 0 W/m2
00:12 -9.8 °C -13.6 °C 1035.1 hPa Calm     74% 0 mm 0 W/m2
00:18 -9.9 °C -13.7 °C 1035.1 hPa Calm     74% 0 mm 0 W/m2
00:24 -10 °C -13.6 °C 1035.1 hPa Calm     75% 0 mm 0 W/m2
00:29 -10.1 °C -13.6 °C 1035.1 hPa Calm     76% 0 mm 0 W/m2
00:35 -10.1 °C -13.2 °C 1035.1 hPa Calm     78% 0 mm 0 W/m2
00:42 -10.2 °C -13.3 °C 1035.1 hPa Calm     78% 0 mm 0 W/m2
00:48 -10.3 °C -13.2 °C 1035.1 hPa Calm     79% 0 mm 0 W/m2
00:53 -10.4 °C -13.3 °C 1035.1 hPa Calm     79% 0 mm 0 W/m2
00:59 -10.4 °C -13.4 °C 1035.1 hPa Calm     79% 0 mm 0 W/m2
01:05 -10.4 °C -13.4 °C 1035.1 hPa Calm     79% 0 mm 0 W/m2
01:12 -10.4 °C -13.3 °C 1035.1 hPa Calm     79% 0 mm 0 W/m2
01:18 -10.4 °C -13.2 °C 1035.1 hPa Calm     80% 0 mm 0 W/m2
01:23 -10.5 °C -13.3 °C 1035.1 hPa Calm     80% 0 mm 0 W/m2
01:30 -10.5 °C -13.1 °C 1035.1 hPa Calm     81% 0 mm 0 W/m2
01:35 -10.6 °C -13.2 °C 1035.1 hPa Calm     81% 0 mm 0 W/m2
01:42 -10.6 °C -13.2 °C 1035.1 hPa Calm     81% 0 mm 0 W/m2
01:48 -10.6 °C -13.1 °C 1035.1 hPa Calm     82% 0 mm 0 W/m2
01:53 -10.7 °C -13.2 °C 1035.4 hPa Calm     82% 0 mm 0 W/m2
01:59 -10.7 °C -13.2 °C 1035.4 hPa Calm     82% 0 mm 0 W/m2
02:05 -10.7 °C -13.2 °C 1035.4 hPa Calm     82% 0 mm 0 W/m2
02:12 -10.7 °C -13.2 °C 1035.8 hPa Calm     82% 0 mm 0 W/m2
02:18 -10.7 °C -13.2 °C 1035.8 hPa Calm     82% 0 mm 0 W/m2
02:24 -10.7 °C -13.2 °C 1035.8 hPa Calm     82% 0 mm 0 W/m2
02:29 -10.7 °C -13.2 °C 1035.8 hPa Calm     82% 0 mm 0 W/m2
02:35 -10.7 °C -13.2 °C 1035.8 hPa Calm     82% 0 mm 0 W/m2
02:42 -10.6 °C -13.1 °C 1035.8 hPa Calm     82% 0 mm 0 W/m2
02:48 -10.6 °C -13.1 °C 1035.8 hPa Calm   1.6 km/h 82% 0 mm 0 W/m2
02:54 -10.6 °C -13.1 °C 1035.4 hPa Calm     82% 0 mm 0 W/m2
02:59 -10.7 °C -13.2 °C 1035.4 hPa Calm     82% 0 mm 0 W/m2
03:05 -10.6 °C -13.1 °C 1035.4 hPa ENE 1.6 km/h 1.6 km/h 82% 0 mm 0 W/m2
03:12 -10.7 °C -13.2 °C 1035.4 hPa ENE 1.6 km/h 1.6 km/h 82% 0 mm 0 W/m2
03:18 -10.6 °C -13.1 °C 1035.4 hPa ENE 1.6 km/h 1.6 km/h 82% 0 mm 0 W/m2
03:23 -10.7 °C -13.2 °C 1035.4 hPa Calm   1.6 km/h 82% 0 mm 0 W/m2
03:29 -10.7 °C -13.2 °C 1035.8 hPa Calm     82% 0 mm 0 W/m2
03:35 -10.8 °C -13.3 °C 1035.8 hPa Calm     82% 0 mm 0 W/m2
03:42 -10.8 °C -13.3 °C 1035.8 hPa Calm     82% 0 mm 0 W/m2
03:48 -10.9 °C -13.3 °C 1035.4 hPa Calm     82% 0 mm 0 W/m2
03:53 -10.9 °C -13.3 °C 1035.4 hPa Calm     82% 0 mm 0 W/m2
04:00 -11 °C -13.4 °C 1035.4 hPa Calm   1.6 km/h 82% 0 mm 0 W/m2
04:05 -10.9 °C -13.3 °C 1035.8 hPa Calm   1.6 km/h 83% 0 mm 0 W/m2
04:12 -11 °C -13.3 °C 1035.8 hPa Calm     83% 0 mm 0 W/m2
04:18 -10.9 °C -13.2 °C 1035.4 hPa Calm   3.2 km/h 83% 0 mm 0 W/m2
04:23 -10.9 °C -13.2 °C 1035.4 hPa ENE 1.6 km/h 6.4 km/h 83% 0 mm 0 W/m2
04:29 -10.8 °C -13.2 °C 1035.4 hPa ENE 1.6 km/h 1.6 km/h 83% 0 mm 0 W/m2
04:36 -10.8 °C -13.3 °C 1035.4 hPa ENE 1.6 km/h 1.6 km/h 82% 0 mm 0 W/m2
04:42 -10.7 °C -13.2 °C 1035.4 hPa Calm   1.6 km/h 82% 0 mm 0 W/m2
04:48 -10.7 °C -13.3 °C 1035.8 hPa Calm   1.6 km/h 81% 0 mm 0 W/m2
04:53 -10.7 °C -13.3 °C 1035.8 hPa Calm   1.6 km/h 81% 0 mm 0 W/m2
05:00 -10.8 °C -13.4 °C 1035.8 hPa Calm     81% 0 mm 0 W/m2
05:05 -10.9 °C -13.5 °C 1036.1 hPa Calm     81% 0 mm 0 W/m2
05:12 -10.9 °C -13.6 °C 1036.1 hPa Calm     81% 0 mm 0 W/m2
05:18 -11.1 °C -13.7 °C 1036.1 hPa Calm   1.6 km/h 81% 0 mm 0 W/m2
05:23 -11.1 °C -13.7 °C 1036.1 hPa Calm   1.6 km/h 81% 0 mm 0 W/m2
05:29 -11.1 °C -13.6 °C 1036.1 hPa Calm     82% 0 mm 0 W/m2
05:35 -11.1 °C -13.6 °C 1036.5 hPa Calm     82% 0 mm 0 W/m2
05:42 -11.1 °C -13.5 °C 1036.5 hPa Calm     82% 0 mm 0 W/m2
05:48 -11.1 °C -13.5 °C 1036.8 hPa Calm     82% 0 mm 0 W/m2
05:53 -11.2 °C -13.6 °C 1036.8 hPa Calm     82% 0 mm 0 W/m2
05:59 -11.2 °C -13.6 °C 1036.8 hPa Calm   1.6 km/h 82% 0 mm 0 W/m2
06:05 -11.2 °C -13.7 °C 1036.8 hPa ENE 1.6 km/h 1.6 km/h 82% 0 mm 0 W/m2
06:12 -11.3 °C -13.7 °C 1036.8 hPa Calm   1.6 km/h 82% 0 mm 0 W/m2
06:18 -11.3 °C -13.8 °C 1036.8 hPa Calm   1.6 km/h 82% 0 mm 0 W/m2
06:24 -11.2 °C -13.6 °C 1036.8 hPa ENE 1.6 km/h 3.2 km/h 83% 0 mm 0 W/m2
06:29 -11.2 °C -13.7 °C 1036.8 hPa ENE 1.6 km/h 1.6 km/h 82% 0 mm 0 W/m2
06:35 -11.3 °C -13.7 °C 1036.8 hPa ENE 1.6 km/h 3.2 km/h 82% 0 mm 0 W/m2
06:42 -11.2 °C -13.7 °C 1036.8 hPa ENE 1.6 km/h 1.6 km/h 82% 0 mm 0 W/m2
06:48 -11.3 °C -13.7 °C 1036.8 hPa ENE 1.6 km/h 3.2 km/h 82% 0 mm 0 W/m2
06:54 -11.3 °C -13.8 °C 1036.8 hPa Calm   1.6 km/h 82% 0 mm 0 W/m2
06:59 -11.3 °C -13.8 °C 1036.8 hPa ENE 1.6 km/h 1.6 km/h 82% 0 mm 0 W/m2
07:05 -11.4 °C -13.8 °C 1036.8 hPa ENE 1.6 km/h 1.6 km/h 82% 0 mm 0 W/m2
07:12 -11.4 °C -13.8 °C 1037.1 hPa Calm   3.2 km/h 83% 0 mm 0 W/m2
07:18 -11.4 °C -13.8 °C 1037.1 hPa Calm   3.2 km/h 83% 0 mm 0 W/m2
07:23 -11.5 °C -13.8 °C 1036.8 hPa Calm     83% 0 mm 5 W/m2
07:30 -11.6 °C -13.9 °C 1036.8 hPa Calm     83% 0 mm 7 W/m2
07:35 -11.6 °C -13.9 °C 1037.1 hPa Calm     83% 0 mm 9 W/m2
07:42 -11.6 °C -13.9 °C 1037.1 hPa Calm     83% 0 mm 12 W/m2
07:48 -11.5 °C -13.8 °C 1037.1 hPa Calm   1.6 km/h 83% 0 mm 16 W/m2
07:53 -11.5 °C -13.8 °C 1037.1 hPa Calm   1.6 km/h 83% 0 mm 19 W/m2
08:00 -11.4 °C -13.8 °C 1037.1 hPa Calm     83% 0 mm 21 W/m2
08:06 -11.3 °C -13.4 °C 1036.8 hPa ENE 1.6 km/h 6.4 km/h 84% 0 mm 23 W/m2
08:12 -11.2 °C -13.5 °C 1037.1 hPa ENE 1.6 km/h 4.8 km/h 83% 0 mm 25 W/m2
08:18 -11 °C -13.3 °C 1037.1 hPa East 1.6 km/h 4.8 km/h 83% 0 mm 30 W/m2
08:23 -10.8 °C -13.2 °C 1037.1 hPa East 1.6 km/h 3.2 km/h 83% 0 mm 70 W/m2
08:30 -10.7 °C -13.2 °C 1036.8 hPa East 1.6 km/h 1.6 km/h 82% 0 mm 134 W/m2
08:35 -10.4 °C -12.9 °C 1036.8 hPa East 3.2 km/h 4.8 km/h 82% 0 mm 134 W/m2
08:42 -10.1 °C -12.7 °C 1036.8 hPa ESE 3.2 km/h 3.2 km/h 81% 0 mm 172 W/m2
08:48 -9.6 °C -12.4 °C 1037.1 hPa ENE 3.2 km/h 3.2 km/h 80% 0 mm 193 W/m2
08:54 -9.3 °C -12.2 °C 1037.1 hPa East 3.2 km/h 3.2 km/h 79% 0 mm 202 W/m2
08:59 -8.9 °C -12.2 °C 1037.1 hPa ENE 3.2 km/h 4.8 km/h 77% 0 mm 216 W/m2
09:05 -8.6 °C -11.9 °C 1036.8 hPa ESE 3.2 km/h 4.8 km/h 77% 0 mm 230 W/m2
09:12 -8.2 °C -11.8 °C 1036.8 hPa ESE 1.6 km/h 3.2 km/h 75% 0 mm 246 W/m2
09:18 -7.9 °C -11.6 °C 1036.8 hPa ENE 3.2 km/h 4.8 km/h 75% 0 mm 260 W/m2
09:23 -7.7 °C -11.5 °C 1036.8 hPa ENE 3.2 km/h 4.8 km/h 74% 0 mm 274 W/m2
09:29 -7.6 °C -11.6 °C 1036.8 hPa ENE 4.8 km/h 4.8 km/h 73% 0 mm 290 W/m2
09:36 -7.5 °C -11.5 °C 1036.8 hPa East 4.8 km/h 8 km/h 73% 0 mm 306 W/m2
09:42 -6.7 °C -10.9 °C 1036.8 hPa East 4.8 km/h 4.8 km/h 72% 0 mm 322 W/m2
09:48 -6.7 °C -11.1 °C 1036.8 hPa East 4.8 km/h 4.8 km/h 71% 0 mm 339 W/m2
09:53 -6.3 °C -11.1 °C 1036.8 hPa ESE 3.2 km/h 8 km/h 69% 0 mm 350 W/m2
10:00 -6.3 °C -10.9 °C 1036.5 hPa NE 3.2 km/h 3.2 km/h 70% 0 mm 364 W/m2
10:06 -6.1 °C -10.8 °C 1036.5 hPa SE 3.2 km/h 4.8 km/h 69% 0 mm 371 W/m2
10:12 -5.8 °C -10.6 °C 1036.5 hPa East 3.2 km/h 4.8 km/h 69% 0 mm 385 W/m2
10:18 -5.5 °C -10.8 °C 1036.1 hPa ENE 3.2 km/h 11.3 km/h 66% 0 mm 396 W/m2
10:23 -5.2 °C -10.4 °C 1036.1 hPa ENE 4.8 km/h 6.4 km/h 67% 0 mm 406 W/m2
10:29 -5.2 °C -10.2 °C 1036.1 hPa East 4.8 km/h 8 km/h 68% 0 mm 417 W/m2
10:36 -4.6 °C -9.8 °C 1036.1 hPa SE 4.8 km/h 8 km/h 67% 0 mm 425 W/m2
10:42 -4.3 °C -9.7 °C 1036.1 hPa SE 4.8 km/h 4.8 km/h 66% 0 mm 436 W/m2
10:48 -3.9 °C -9.8 °C 1035.8 hPa East 4.8 km/h 8 km/h 64% 0 mm 445 W/m2
10:53 -3.7 °C -9.6 °C 1035.8 hPa ENE 4.8 km/h 4.8 km/h 64% 0 mm 454 W/m2
11:00 -3.3 °C -9.4 °C 1035.4 hPa ENE 4.8 km/h 8 km/h 63% 0 mm 461 W/m2
11:06 -2.9 °C -8.9 °C 1035.4 hPa ENE 4.8 km/h 11.3 km/h 63% 0 mm 466 W/m2
11:12 -2.8 °C -8.9 °C 1035.4 hPa ESE 4.8 km/h 4.8 km/h 63% 0 mm 471 W/m2
11:18 -2.8 °C -8.9 °C 1035.4 hPa ENE 4.8 km/h 11.3 km/h 63% 0 mm 478 W/m2
11:25 -2.3 °C -8.6 °C 1035.1 hPa ESE 4.8 km/h 8 km/h 62% 0 mm 483 W/m2
11:32 -2.4 °C -8.5 °C 1035.1 hPa East 4.8 km/h 4.8 km/h 63% 0 mm 485 W/m2
11:38 -2 °C -8.3 °C 1034.8 hPa ESE 6.4 km/h 6.4 km/h 62% 0 mm 489 W/m2
11:43 -1.8 °C -8.2 °C 1034.4 hPa SSE 6.4 km/h 9.7 km/h 62% 0 mm 489 W/m2
11:49 -1.7 °C -8.3 °C 1034.4 hPa ENE 6.4 km/h 6.4 km/h 61% 0 mm 492 W/m2
11:55 -1.6 °C -8.1 °C 1034.4 hPa East 6.4 km/h 8 km/h 61% 0 mm 490 W/m2
12:02 -1.5 °C -8.1 °C 1034.1 hPa ENE 6.4 km/h 6.4 km/h 61% 0 mm 492 W/m2
12:08 -1.4 °C -7.9 °C 1034.1 hPa SE 6.4 km/h 11.3 km/h 61% 0 mm 494 W/m2
12:14 -1.2 °C -8.2 °C 1033.7 hPa ENE 4.8 km/h 11.3 km/h 59% 0 mm 490 W/m2
12:19 -0.9 °C -7.7 °C 1033.7 hPa East 4.8 km/h 4.8 km/h 60% 0 mm 489 W/m2
12:25 -0.7 °C -7.7 °C 1033.4 hPa East 4.8 km/h 9.7 km/h 59% 0 mm 504 W/m2
12:32 -0.4 °C -7.3 °C 1033.4 hPa SE 4.8 km/h 4.8 km/h 60% 0 mm 461 W/m2
12:38 -0.5 °C -7.6 °C 1033.1 hPa ESE 4.8 km/h 4.8 km/h 59% 0 mm 316 W/m2
12:43 -0.8 °C -7.4 °C 1033.1 hPa East 6.4 km/h 8 km/h 61% 0 mm 295 W/m2
12:49 -0.9 °C -7.9 °C 1032.7 hPa East 6.4 km/h 9.7 km/h 59% 0 mm 563 W/m2
12:55 -0.9 °C -7.9 °C 1032.7 hPa NE 8 km/h 11.3 km/h 59% 0 mm 496 W/m2
13:02 -0.4 °C -7.5 °C 1032.4 hPa ENE 6.4 km/h 8 km/h 59% 0 mm 478 W/m2
13:08 -0.2 °C -7.5 °C 1032.4 hPa East 6.4 km/h 8 km/h 58% 0 mm 471 W/m2
13:13 0.3 °C -7.1 °C 1032.4 hPa ENE 4.8 km/h 4.8 km/h 58% 0 mm 468 W/m2
13:20 0.3 °C -7.5 °C 1032.1 hPa ENE 4.8 km/h 6.4 km/h 56% 0 mm 466 W/m2
13:25 0.4 °C -7.2 °C 1032.1 hPa NNE 6.4 km/h 9.7 km/h 57% 0 mm 455 W/m2
13:32 0.8 °C -6.8 °C 1031.7 hPa ENE 4.8 km/h 4.8 km/h 57% 0 mm 380 W/m2
13:38 1.3 °C -6.9 °C 1031.4 hPa SE 3.2 km/h 4.8 km/h 54% 0 mm 443 W/m2
13:43 2 °C -6.8 °C 1031.7 hPa SE 6.4 km/h 9.7 km/h 52% 0 mm 438 W/m2
13:49 2.3 °C -7.1 °C 1031.7 hPa SE 9.7 km/h 9.7 km/h 50% 0 mm 434 W/m2
13:55 2.8 °C -6.9 °C 1031.4 hPa ESE 8 km/h 9.7 km/h 49% 0 mm 404 W/m2
14:02 2.7 °C -6.7 °C 1031.4 hPa SSE 8 km/h 12.9 km/h 50% 0 mm 359 W/m2
14:08 2.9 °C -6.3 °C 1031.4 hPa SE 8 km/h 12.9 km/h 51% 0 mm 371 W/m2
14:14 2.7 °C -7 °C 1031.4 hPa SSE 8 km/h 14.5 km/h 49% 0 mm 330 W/m2
14:19 2.6 °C -6.8 °C 1031.4 hPa ESE 9.7 km/h 9.7 km/h 50% 0 mm 253 W/m2
14:25 2.7 °C -6.7 °C 1031.4 hPa East 9.7 km/h 17.7 km/h 50% 0 mm 313 W/m2
14:32 2.9 °C -6.7 °C 1031 hPa East 8 km/h 9.7 km/h 49% 0 mm 323 W/m2
14:38 3.1 °C -6.6 °C 1031 hPa ESE 9.7 km/h 9.7 km/h 49% 0 mm 306 W/m2
14:43 3.1 °C -6.3 °C 1031 hPa East 8 km/h 8 km/h 50% 0 mm 258 W/m2
14:49 3.1 °C -6.1 °C 1030.7 hPa SE 6.4 km/h 8 km/h 51% 0 mm 239 W/m2
14:56 3.1 °C -6.3 °C 1030.7 hPa SSE 6.4 km/h 8 km/h 50% 0 mm 237 W/m2
15:02 3.2 °C -6.5 °C 1030.7 hPa SE 6.4 km/h 9.7 km/h 49% 0 mm 276 W/m2
15:08 3.3 °C -5.7 °C 1030.7 hPa SE 6.4 km/h 11.3 km/h 52% 0 mm 311 W/m2
15:13 3.6 °C -5.9 °C 1030.7 hPa South 6.4 km/h 6.4 km/h 50% 0 mm 283 W/m2
15:19 3.5 °C -6.2 °C 1030.7 hPa SSE 6.4 km/h 11.3 km/h 49% 0 mm 287 W/m2
15:25 3.5 °C -5.9 °C 1030.7 hPa SE 9.7 km/h 11.3 km/h 50% 0 mm 271 W/m2
15:32 3.4 °C -5.8 °C 1030.4 hPa SSE 8 km/h 12.9 km/h 51% 0 mm 257 W/m2
15:38 3.6 °C -5.8 °C 1030.4 hPa SSE 6.4 km/h 12.9 km/h 50% 0 mm 230 W/m2
15:44 3.7 °C -6.1 °C 1030.4 hPa SE 4.8 km/h 9.7 km/h 49% 0 mm 218 W/m2
15:55 3.8 °C -5.4 °C 1030 hPa ESE 4.8 km/h 11.3 km/h 51% 0 mm 167 W/m2
16:02 3.7 °C -6.1 °C 1030 hPa SE 4.8 km/h 6.4 km/h 49% 0 mm 158 W/m2
16:08 3.8 °C -5.7 °C 1030 hPa South 6.4 km/h 8 km/h 50% 0 mm 146 W/m2
16:14 3.6 °C -5.8 °C 1030 hPa South 6.4 km/h 9.7 km/h 50% 0 mm 39 W/m2
16:20 3.6 °C -5.9 °C 1030 hPa SSE 6.4 km/h 9.7 km/h 50% 0 mm 35 W/m2
16:25 3.5 °C -5.4 °C 1030 hPa SE 6.4 km/h 9.7 km/h 52% 0 mm 32 W/m2
16:32 3.4 °C -5.8 °C 1030 hPa ESE 4.8 km/h 8 km/h 51% 0 mm 28 W/m2
16:38 3.3 °C -5.6 °C 1030 hPa SE 6.4 km/h 8 km/h 52% 0 mm 25 W/m2
16:43 3.2 °C -5.4 °C 1030 hPa SSE 4.8 km/h 8 km/h 53% 0 mm 21 W/m2
16:49 3.1 °C -5.6 °C 1030 hPa SSE 3.2 km/h 3.2 km/h 53% 0 mm 16 W/m2
16:55 2.8 °C -5.8 °C 1030 hPa SSE 1.6 km/h 6.4 km/h 53% 0 mm 12 W/m2
17:02 2.6 °C -5.6 °C 1030 hPa SSE 1.6 km/h 1.6 km/h 55% 0 mm 7 W/m2
17:08 2.3 °C -5.8 °C 1030 hPa SE 1.6 km/h 1.6 km/h 55% 0 mm 5 W/m2
17:14 1.8 °C -5.6 °C 1030 hPa SE 1.6 km/h 1.6 km/h 58% 0 mm 0 W/m2
17:19 1.1 °C -6.1 °C 1030 hPa ENE 1.6 km/h 1.6 km/h 59% 0 mm 0 W/m2
17:25 0.4 °C -6.7 °C 1030 hPa ENE 1.6 km/h 3.2 km/h 59% 0 mm 0 W/m2
17:32 -0.1 °C -6.7 °C 1030 hPa ENE 1.6 km/h 3.2 km/h 61% 0 mm 0 W/m2
17:38 -0.4 °C -6.8 °C 1030 hPa ENE 1.6 km/h 3.2 km/h 62% 0 mm 0 W/m2
17:43 -0.7 °C -6.7 °C 1030 hPa NE 1.6 km/h 4.8 km/h 64% 0 mm 0 W/m2
17:50 -0.9 °C -6.8 °C 1030 hPa ENE 3.2 km/h 4.8 km/h 64% 0 mm 0 W/m2
17:55 -0.9 °C -7.1 °C 1030 hPa ENE 4.8 km/h 4.8 km/h 63% 0 mm 0 W/m2
18:02 -1.1 °C -7 °C 1030 hPa East 3.2 km/h 9.7 km/h 64% 0 mm 0 W/m2
18:08 -1.1 °C -7 °C 1030 hPa ENE 4.8 km/h 9.7 km/h 64% 0 mm 0 W/m2
18:13 -1.2 °C -7.2 °C 1030 hPa ENE 3.2 km/h 4.8 km/h 64% 0 mm 0 W/m2
18:20 -1.2 °C -7.3 °C 1030 hPa ENE 4.8 km/h 4.8 km/h 63% 0 mm 0 W/m2
18:25 -1.3 °C -7.3 °C 1030 hPa East 4.8 km/h 8 km/h 64% 0 mm 0 W/m2
18:32 -1.3 °C -7.5 °C 1029.7 hPa ENE 4.8 km/h 4.8 km/h 63% 0 mm 0 W/m2
18:38 -1.4 °C -7.4 °C 1030 hPa ENE 3.2 km/h 4.8 km/h 64% 0 mm 0 W/m2
18:44 -1.5 °C -7.4 °C 1029.7 hPa ENE 3.2 km/h 3.2 km/h 64% 0 mm 0 W/m2
18:49 -1.7 °C -7.4 °C 1029.7 hPa East 3.2 km/h 3.2 km/h 65% 0 mm 0 W/m2
18:55 -1.7 °C -7.4 °C 1029.7 hPa ENE 3.2 km/h 3.2 km/h 65% 0 mm 0 W/m2
19:02 -1.7 °C -7.4 °C 1029.7 hPa ENE 3.2 km/h 3.2 km/h 65% 0 mm 0 W/m2
19:08 -1.7 °C -7.4 °C 1029.7 hPa ENE 3.2 km/h 3.2 km/h 65% 0 mm 0 W/m2
19:13 -1.8 °C -7.5 °C 1029.7 hPa ENE 1.6 km/h 4.8 km/h 65% 0 mm 0 W/m2
19:19 -1.9 °C -7.4 °C 1029.7 hPa ENE 1.6 km/h 3.2 km/h 66% 0 mm 0 W/m2
19:26 -1.9 °C -7.4 °C 1029.7 hPa ENE 3.2 km/h 4.8 km/h 66% 0 mm 0 W/m2
19:32 -1.9 °C -7.6 °C 1029.7 hPa ENE 3.2 km/h 3.2 km/h 65% 0 mm 0 W/m2
19:38 -1.9 °C -7.7 °C 1029.7 hPa East 3.2 km/h 9.7 km/h 65% 0 mm 0 W/m2
19:43 -2.1 °C -7.6 °C 1029.7 hPa ENE 4.8 km/h 4.8 km/h 66% 0 mm 0 W/m2
19:50 -2.1 °C -7.6 °C 1029.3 hPa East 3.2 km/h 3.2 km/h 66% 0 mm 0 W/m2
19:55 -2.2 °C -7.7 °C 1029.3 hPa ENE 3.2 km/h 4.8 km/h 66% 0 mm 0 W/m2
20:02 -2.2 °C -7.5 °C 1029.3 hPa East 4.8 km/h 8 km/h 67% 0 mm 0 W/m2
20:08 -2.3 °C -7.6 °C 1029 hPa East 4.8 km/h 8 km/h 67% 0 mm 0 W/m2
20:13 -2.2 °C -7.7 °C 1029 hPa East 4.8 km/h 8 km/h 66% 0 mm 0 W/m2
20:20 -2.2 °C -7.7 °C 1029 hPa East 6.4 km/h 6.4 km/h 66% 0 mm 0 W/m2
20:25 -2.2 °C -7.7 °C 1029 hPa East 4.8 km/h 6.4 km/h 66% 0 mm 0 W/m2
20:32 -2.3 °C -7.8 °C 1029 hPa East 4.8 km/h 4.8 km/h 66% 0 mm 0 W/m2
20:38 -2.2 °C -7.7 °C 1029 hPa ENE 4.8 km/h 8 km/h 66% 0 mm 0 W/m2
20:44 -2.3 °C -7.8 °C 1029 hPa ENE 4.8 km/h 6.4 km/h 66% 0 mm 0 W/m2
20:50 -2.3 °C -7.8 °C 1029 hPa NE 4.8 km/h 4.8 km/h 66% 0 mm 0 W/m2
20:55 -2.4 °C -7.7 °C 1029 hPa ENE 4.8 km/h 4.8 km/h 67% 0 mm 0 W/m2
21:02 -2.6 °C -7.7 °C 1029 hPa ENE 4.8 km/h 8 km/h 68% 0 mm 0 W/m2
21:08 -2.6 °C -7.7 °C 1029 hPa East 6.4 km/h 8 km/h 68% 0 mm 0 W/m2
21:13 -2.7 °C -7.8 °C 1029 hPa East 4.8 km/h 6.4 km/h 68% 0 mm 0 W/m2
21:19 -2.9 °C -7.8 °C 1028.7 hPa ENE 4.8 km/h 6.4 km/h 69% 0 mm 0 W/m2
21:26 -2.8 °C -7.7 °C 1029 hPa East 4.8 km/h 9.7 km/h 69% 0 mm 0 W/m2
21:32 -2.7 °C -7.8 °C 1029 hPa East 6.4 km/h 8 km/h 68% 0 mm 0 W/m2
21:38 -2.8 °C -7.7 °C 1029 hPa East 6.4 km/h 8 km/h 69% 0 mm 0 W/m2
21:43 -3 °C -7.9 °C 1028.7 hPa ENE 4.8 km/h 11.3 km/h 69% 0 mm 0 W/m2
21:49 -3 °C -7.7 °C 1028.7 hPa ENE 4.8 km/h 6.4 km/h 70% 0 mm 0 W/m2
21:56 -2.8 °C -7.7 °C 1028.7 hPa East 6.4 km/h 11.3 km/h 69% 0 mm 0 W/m2
22:02 -2.9 °C -7.8 °C 1028.7 hPa ENE 6.4 km/h 6.4 km/h 69% 0 mm 0 W/m2
22:08 -3 °C -7.9 °C 1028.7 hPa ENE 4.8 km/h 6.4 km/h 69% 0 mm 0 W/m2
22:13 -3.3 °C -8 °C 1028.7 hPa ENE 4.8 km/h 4.8 km/h 70% 0 mm 0 W/m2
22:20 -3.4 °C -7.9 °C 1028.7 hPa East 4.8 km/h 4.8 km/h 71% 0 mm 0 W/m2
22:25 -3.4 °C -7.9 °C 1028.3 hPa ENE 4.8 km/h 11.3 km/h 71% 0 mm 0 W/m2
22:32 -3.1 °C -7.6 °C 1028.3 hPa ENE 6.4 km/h 8 km/h 71% 0 mm 0 W/m2
22:38 -3.1 °C -7.6 °C 1028.3 hPa ENE 6.4 km/h 8 km/h 71% 0 mm 0 W/m2
22:44 -3.3 °C -7.8 °C 1028.3 hPa ENE 4.8 km/h 8 km/h 71% 0 mm 0 W/m2
22:50 -3.1 °C -7.8 °C 1028 hPa NE 6.4 km/h 6.4 km/h 70% 0 mm 0 W/m2
22:55 -3.3 °C -7.8 °C 1028 hPa ENE 4.8 km/h 8 km/h 71% 0 mm 0 W/m2
23:02 -3.3 °C -7.8 °C 1028 hPa East 4.8 km/h 4.8 km/h 71% 0 mm 0 W/m2
23:08 -3.5 °C -7.8 °C 1028 hPa East 3.2 km/h 4.8 km/h 72% 0 mm 0 W/m2
23:13 -3.6 °C -7.9 °C 1028 hPa East 3.2 km/h 3.2 km/h 72% 0 mm 0 W/m2
23:19 -3.6 °C -7.9 °C 1028 hPa ENE 3.2 km/h 3.2 km/h 72% 0 mm 0 W/m2
23:26 -3.7 °C -8 °C 1028 hPa ENE 4.8 km/h 8 km/h 72% 0 mm 0 W/m2
23:32 -3.6 °C -7.9 °C 1028 hPa ENE 4.8 km/h 6.4 km/h 72% 0 mm 0 W/m2
23:38 -3.6 °C -7.9 °C 1028 hPa ENE 4.8 km/h 6.4 km/h 72% 0 mm 0 W/m2
23:43 -3.9 °C -8 °C 1028 hPa ENE 3.2 km/h 4.8 km/h 73% 0 mm 0 W/m2
23:49 -3.9 °C -8 °C 1027.7 hPa East 3.2 km/h 3.2 km/h 73% 0 mm 0 W/m2
23:55 -3.9 °C -8.1 °C 1027.7 hPa East 3.2 km/h 4.8 km/h 73% 0 mm 0 W/m2
Country Meadow, Clay, NY, USA
Compliments of Weather Underground - 2 mb